Tracking 19709 objects as of 19-Jun-2019
HD Live streaming from Space Station
objects crossing your sky now

METEOR 2-8 DEB

Track METEOR 2-8 DEB now!
10-day predictions


NORAD ID: 36338
Int'l Code: 1982-025Y
Perigee: 842.5 km
Apogee: 872.2 km
Inclination: 82.5 °
Period: 101.9 minutes
Semi major axis: 7228 km
RCS: 0.0162 m2 (small)
Launch date: March 25, 1982
Source: Commonwealth of Independent States (former USSR) (CIS)
Launch site: PLESETSK MISSILE AND SPACE COMPLEX (PKMTR)

Note: This is SATELLITE DEBRIS
aabbcc
Your satellite tracking list
Your tracking list is empty




NASA's NSSDC Master Catalog

Two Line Element Set (TLE):
1 36338U 82025Y   19169.42085631 +.00000725 +00000-0 +38179-3 0  9990
2 36338 082.5279 168.7470 0020517 044.6591 315.6233 14.12686099817134
Source of the keplerian elements: AFSPC